Location: Glen Waverley
(37.8830°S, 145.1670°E)
Time: 22:50:39
(UTC+11:00)

ISS - Visible Passes

Search period start: 30 January 2023 00:00
Search period end: 09 February 2023 00:00
Orbit: 413 x 419 km, 51.6° (Epoch: 30 January)

Date Brightness Start Highest point End Pass type
(mag) Time Alt. Az. Time Alt. Az. Time Alt. Az.
30 Jan -0.3 02:52:40 10° SE 02:52:40 10° SE 02:52:41 10° SE visible
30 Jan -1.4 04:25:32 16° SW 04:26:22 17° SSW 04:28:42 10° SSE visible
31 Jan -1.2 03:38:38 20° S 03:38:38 20° S 03:40:22 10° SSE visible
01 Feb -0.3 02:51:42 11° SE 02:51:42 11° SE 02:51:55 10° SE visible
01 Feb -0.7 04:25:24 10° SSW 04:26:16 11° SSW 04:27:07 10° S visible
02 Feb -0.8 03:37:35 13° SSW 03:37:35 13° SSW 03:39:02 10° SSE visible
03 Feb -0.1 02:50:35 11° SSE 02:50:35 11° SSE 02:50:43 10° SSE visible
03 Feb -0.6 06:02:54 10° S 06:04:12 12° SSE 06:05:30 10° SE visible
05 Feb -0.9 06:01:15 10° SSW 06:03:47 19° SSE 06:06:19 10° ESE visible
06 Feb -0.7 05:12:48 10° SSW 05:14:43 14° SSE 05:16:40 10° SE visible
07 Feb -0.4 04:24:29 10° S 04:25:35 11° SSE 04:26:42 10° SE visible
07 Feb -2.2 05:59:49 10° SW 06:03:04 40° SE 06:06:16 10° ENE visible
08 Feb -1.4 05:11:09 10° SSW 05:14:03 25° SSE 05:16:57 10° E visible
